Wind_Speed
24 27 34 37 36 32 32 30 29 28 27 24 21 17 15 13 14 15 15 14 13 13 12 12 13 13 12 11 11 11 15 14 12 13 9 6 6 10 8 8 10 13 13
28 35 34 33 32 31 30 28 28 27 24 21 18 16 13 13 14 14 13 12 12 12 11 12 13 13 13 14 10 9 12 15 9 7 10 11 12 10 7 10 10 10 11
33 35 31 31 30 30 28 28 27 23 22 19 16 14 13 13 13 13 12 12 12 11 11 12 12 13 13 13 11 9 9 13 12 8 8 11 13 11 12 12 11 12 11
35 32 30 29 29 27 26 24 23 22 20 17 15 13 13 13 13 13 13 12 12 11 11 12 13 13 13 12 12 11 10 9 13 10 8 10 14 13 12 10 11 12 12
30 30 30 28 26 25 23 22 22 20 17 15 14 13 13 12 12 12 11 11 12 12 12 13 14 15 16 14 12 12 8 8 10 13 9 11 13 11 11 10 10 11 11
28 28 27 26 24 24 23 21 20 18 16 15 14 13 12 12 10 9 10 11 12 12 11 12 13 14 14 11 12 13 8 4 11 11 11 9 12 11 9 8 9 9 8
27 26 25 23 23 22 21 21 19 17 16 14 13 12 11 10 8 10 10 11 11 12 12 12 11 12 13 11 11 11 10 9 9 7 8 9 10 9 8 8 6 6 4
23 24 23 22 21 21 20 19 18 17 15 13 12 10 10 9 10 10 9 9 10 12 11 11 11 11 10 10 11 11 9 8 7 6 4 7 9 9 7 6 4 4 5
22 21 22 21 21 20 19 18 17 16 14 12 10 8 8 8 8 8 8 9 9 11 12 10 10 7 7 8 7 7 10 9 8 8 6 4 7 9 8 6 4 4 6
22 21 20 20 19 19 19 18 16 15 13 10 8 7 7 6 6 6 7 8 8 9 9 8 9 8 8 6 10 8 8 6 9 1 4 3 5 7 8 6 5 4 3
23 21 20 19 18 18 17 17 15 13 11 9 7 6 6 8 7 6 6 6 6 7 6 7 7 5 8 6 5 9 5 6 7 5 5 3 4 6 8 6 3 4 4
23 22 20 19 18 17 17 15 13 12 10 8 6 4 6 1 3 4 3 3 5 5 4 4 5 3 4 7 8 7 4 6 1 2 4 2 3 5 6 7 5 3 4
21 22 21 19 17 16 15 14 13 12 10 7 5 6 4 4 7 3 4 1 3 3 2 1 3 4 3 4 7 9 8 9 7 2 3 4 4 5 5 5 5 5 4
20 20 20 20 18 16 16 15 14 11 9 8 5 4 5 4 2 2 1 2 2 2 3 1 0 3 6 9 10 9 7 8 9 5 4 6 6 6 6 5 4 4 3
15 19 20 19 18 17 16 14 13 11 9 8 8 8 7 4 1 2 2 4 2 2 4 3 4 6 8 9 10 4 9 9 7 5 5 6 7 6 5 6 6 5 6
17 20 18 18 18 15 14 14 11 10 10 7 11 8 7 3 2 2 3 5 6 7 6 7 7 9 10 9 12 9 6 7 3 4 4 3 5 6 7 6 6 7 8
14 15 20 17 16 15 13 13 9 9 9 7 9 6 4 2 3 2 6 7 8 10 5 8 7 10 10 13 12 10 7 4 4 4 3 3 5 7 8 8 7 8 8
13 13 17 17 15 14 11 10 8 7 7 5 4 5 3 5 5 6 7 8 10 11 7 7 8 9 9 14 12 8 7 5 7 4 1 2 4 5 7 8 10 9 8
12 13 15 15 13 12 10 10 10 8 7 7 6 6 5 6 4 8 7 8 9 10 9 9 8 9 10 11 11 5 4 6 3 3 4 3 2 3 2 5 7 9 12
15 14 13 15 15 12 11 12 13 12 10 9 9 8 8 8 9 9 9 8 10 8 9 8 9 10 11 11 9 3 4 3 2 4 4 6 4 4 2 5 6 7 8
21 18 18 17 14 14 13 11 11 10 10 10 7 11 10 11 11 10 10 8 6 6 6 9 11 13 11 11 7 2 2 2 5 7 7 10 7 2 1 2 2 3 6
20 19 19 18 17 14 13 13 13 12 12 13 13 13 14 12 9 10 6 4 4 6 6 8 12 13 14 13 9 6 1 2 2 2 4 9 10 6 2 2 3 3 4
23 21 18 18 18 16 15 16 16 16 14 13 12 11 10 9 7 6 1 4 6 5 5 8 11 13 15 16 15 10 6 3 5 7 5 8 12 9 6 3 3 4 6
27 23 23 21 20 18 18 18 16 15 13 11 11 7 7 8 5 4 7 6 5 5 5 6 9 13 17 21 20 17 13 10 9 6 5 12 11 7 6 7 5 5 7
21 25 24 23 22 22 21 19 16 16 14 13 13 10 9 7 10 10 9 6 6 5 4 5 8 11 18 23 21 23 28 18 12 11 11 12 14 11 9 7 9 7 6
16 18 18 18 25 25 24 21 17 15 15 13 12 10 9 12 14 13 10 8 6 4 2 3 5 10 13 19 20 22 28 21 16 12 12 13 14 14 13 14 11 7 9
Wind_Direction
131 125 129 131 132 132 133 127 124 127 128 128 127 119 113 103 103 106 101 94 84 71 65 65 65 65 65 76 78 59 42 49 66 61 48 58 101 112 125 139 160 179 186
139 132 131 131 132 134 132 131 132 135 135 133 128 119 110 98 98 101 94 89 78 72 64 64 68 63 63 62 68 66 53 49 56 52 52 71 102 100 113 131 142 154 160
138 136 135 135 134 134 135 136 138 138 136 134 125 120 102 96 96 91 83 76 72 67 64 63 65 66 60 64 63 63 64 55 39 39 73 89 92 98 115 119 128 130 129
133 133 135 133 133 134 137 138 139 137 135 129 129 113 102 97 86 79 76 74 71 69 66 64 64 66 61 56 55 57 61 62 47 59 86 91 100 99 110 111 118 118 122
132 133 133 133 134 135 137 139 138 137 135 133 123 109 102 91 82 78 76 75 76 77 71 66 63 61 62 58 51 48 57 66 56 51 72 92 95 99 99 109 116 118 120
137 134 135 135 133 137 138 139 141 141 134 130 117 106 99 88 79 77 78 82 82 80 76 67 62 57 62 61 56 55 56 97 62 52 65 85 92 93 104 122 122 129 130
138 137 137 137 139 139 142 143 143 139 132 126 115 111 102 92 89 88 89 89 81 77 77 73 64 58 58 57 48 53 58 44 55 7 55 68 89 99 106 120 123 129 137
142 140 143 144 143 144 143 143 142 137 133 126 121 115 101 99 94 102 100 92 79 74 73 73 64 54 47 38 46 46 48 60 39 19 14 56 94 105 117 126 140 138 134
146 147 148 148 148 144 144 145 141 139 135 132 128 115 103 95 98 106 96 87 81 77 75 67 62 55 41 32 17 31 42 37 44 60 342 23 91 106 114 127 134 141 137
151 153 154 153 148 148 148 145 146 143 139 138 131 114 94 87 98 92 91 81 76 75 71 63 52 31 33 21 2 359 356 13 33 17 79 63 81 108 112 130 141 147 146
156 159 160 157 156 154 151 151 152 150 149 151 135 112 106 103 70 69 69 82 64 54 58 41 55 44 9 4 345 353 343 3 85 93 139 123 128 111 111 113 146 149 140
162 163 167 164 165 161 159 158 160 160 160 154 138 124 107 97 116 91 78 92 70 54 68 27 62 33 5 353 327 341 9 37 360 130 112 167 147 136 118 121 116 132 157
171 172 168 172 172 172 170 170 173 175 168 165 165 147 154 104 162 80 90 63 74 41 22 343 1 16 33 5 350 346 340 355 24 301 195 174 172 151 128 116 133 135 142
182 178 173 177 180 180 183 183 183 180 183 183 183 165 177 162 124 281 6 319 6 354 297 45 347 23 8 9 354 340 339 351 31 60 161 175 179 168 158 165 123 120 95
185 187 177 186 184 191 195 195 191 189 196 206 197 206 187 171 110 233 319 320 330 332 328 355 14 9 353 359 349 8 352 359 11 48 138 182 200 178 172 176 187 161 158
174 183 191 183 180 197 199 209 207 203 206 201 199 220 202 145 316 326 308 334 342 342 343 347 357 352 347 345 351 357 6 360 8 49 61 181 197 206 200 183 182 201 199
180 184 191 189 184 192 195 220 217 206 202 202 199 199 192 208 250 268 303 317 319 328 329 351 347 338 346 343 346 347 3 360 17 75 75 146 183 211 208 212 208 205 205
189 181 195 189 190 194 192 198 226 227 231 224 224 227 252 245 265 276 277 299 312 321 328 328 332 334 334 335 332 352 354 24 350 12 107 134 182 199 209 207 214 228 225
204 194 191 197 201 203 200 203 227 237 256 262 268 261 281 203 258 273 289 301 305 313 330 324 333 331 330 330 334 9 30 112 240 352 15 59 46 161 178 221 229 226 233
208 201 208 203 206 208 218 217 224 235 239 249 255 250 223 244 262 265 276 299 303 323 333 353 11 3 354 341 340 356 63 46 30 120 177 58 91 98 306 349 223 233 230
225 215 205 208 210 214 227 238 244 247 245 253 251 240 238 251 266 252 268 282 312 353 33 25 19 9 359 348 331 317 131 23 57 87 27 9 33 26 278 321 271 251 218
224 217 218 216 220 224 226 231 237 241 235 238 246 252 252 256 241 249 258 291 85 90 51 30 33 27 22 16 353 344 257 324 74 26 2 334 328 351 341 282 272 292 264
223 223 226 224 224 226 228 230 227 233 235 243 255 275 247 236 246 247 157 135 110 87 53 39 42 36 34 29 24 2 335 302 215 205 261 307 320 330 341 322 294 271 262
229 224 230 230 229 231 231 232 234 240 243 244 249 253 247 216 173 176 140 141 129 102 80 55 47 39 35 29 15 14 3 332 312 285 293 271 301 318 302 293 272 269 261
236 235 233 236 234 231 232 232 235 238 240 239 246 249 250 200 169 156 154 160 135 105 64 45 39 42 50 38 31 19 5 342 331 310 295 290 297 311 312 300 288 288 269
252 236 230 232 236 234 233 231 235 236 233 238 238 241 230 188 174 173 159 159 150 117 57 25 46 61 48 35 26 9 6 346 329 320 307 299 299 304 312 319 310 294 295
Height
3171 3171 3173 3176 3180 3183 3186 3189 3192 3195 3198 3200 3202 3204 3205 3205 3205 3205 3205 3206 3206 3204 3204 3204 3202 3201 3200 3200 3199 3198 3198 3196 3196 3195 3194 3193 3192 3192 3193 3194 3195 3197 3198
3172 3175 3178 3181 3184 3187 3190 3193 3196 3199 3201 3203 3205 3206 3206 3206 3207 3206 3207 3208 3207 3206 3206 3205 3204 3203 3202 3202 3201 3201 3200 3199 3198 3197 3196 3195 3194 3194 3194 3195 3196 3198 3199
3175 3178 3182 3184 3187 3191 3194 3197 3199 3201 3204 3205 3206 3208 3208 3208 3208 3208 3208 3208 3208 3208 3208 3207 3206 3204 3204 3204 3204 3203 3202 3201 3201 3199 3199 3197 3196 3196 3197 3197 3199 3199 3200
3178 3181 3185 3188 3191 3194 3196 3199 3201 3203 3205 3206 3208 3209 3209 3209 3209 3210 3210 3210 3210 3210 3209 3208 3207 3206 3206 3206 3205 3205 3204 3204 3202 3201 3200 3199 3198 3198 3199 3200 3200 3201 3201
3182 3185 3188 3191 3194 3196 3199 3201 3203 3205 3207 3208 3210 3210 3211 3211 3211 3211 3211 3211 3211 3211 3210 3209 3208 3209 3209 3208 3207 3206 3206 3205 3205 3204 3203 3201 3199 3200 3200 3202 3202 3202 3203
3186 3188 3191 3194 3196 3199 3200 3202 3205 3207 3208 3210 3211 3212 3213 3212 3212 3212 3212 3212 3213 3212 3211 3210 3210 3210 3210 3209 3208 3207 3206 3203 3205 3206 3204 3203 3202 3202 3202 3204 3205 3205 3205
3188 3191 3193 3196 3198 3200 3202 3204 3206 3208 3210 3212 3212 3213 3213 3213 3213 3213 3214 3214 3214 3213 3212 3211 3211 3211 3211 3210 3209 3209 3208 3207 3209 3208 3206 3205 3203 3204 3205 3206 3207 3207 3208
3192 3193 3195 3198 3200 3202 3204 3206 3208 3210 3212 3213 3214 3214 3215 3215 3215 3215 3215 3215 3215 3214 3214 3213 3213 3213 3212 3211 3211 3210 3208 3207 3208 3208 3209 3206 3204 3205 3206 3208 3209 3210 3209
3193 3195 3197 3199 3201 3203 3206 3208 3210 3212 3212 3214 3215 3215 3217 3217 3217 3216 3216 3216 3216 3216 3215 3215 3215 3213 3213 3212 3211 3211 3210 3208 3207 3206 3209 3208 3206 3206 3206 3208 3210 3210 3210
3194 3196 3199 3201 3203 3206 3208 3210 3212 3213 3214 3215 3216 3217 3218 3218 3218 3219 3218 3218 3218 3217 3217 3217 3216 3215 3214 3213 3212 3213 3211 3211 3209 3205 3209 3209 3209 3207 3207 3208 3209 3210 3212
3194 3197 3200 3202 3205 3207 3209 3211 3213 3214 3215 3216 3217 3218 3219 3219 3220 3220 3220 3219 3218 3218 3218 3217 3217 3216 3215 3214 3213 3210 3211 3211 3210 3208 3209 3210 3209 3208 3207 3208 3210 3211 3211
3194 3196 3201 3203 3206 3208 3210 3212 3214 3215 3216 3217 3218 3219 3220 3220 3220 3220 3220 3219 3219 3219 3218 3218 3217 3217 3215 3214 3210 3209 3209 3208 3208 3208 3208 3209 3209 3208 3208 3208 3210 3211 3212
3195 3198 3200 3203 3206 3209 3211 3212 3214 3215 3216 3216 3218 3219 3219 3220 3220 3219 3219 3220 3219 3219 3219 3219 3217 3216 3215 3214 3210 3208 3206 3206 3206 3206 3207 3207 3208 3209 3208 3210 3210 3211 3211
3195 3198 3200 3203 3206 3208 3210 3212 3214 3214 3215 3216 3217 3217 3219 3219 3219 3220 3219 3219 3218 3218 3218 3218 3216 3215 3214 3212 3210 3207 3206 3204 3205 3205 3206 3206 3207 3208 3208 3210 3211 3212 3213
3196 3198 3200 3203 3205 3208 3210 3212 3212 3213 3214 3215 3216 3217 3218 3218 3218 3218 3219 3218 3218 3218 3218 3217 3216 3214 3213 3211 3210 3207 3204 3203 3203 3204 3205 3206 3206 3207 3208 3208 3210 3211 3212
3197 3199 3200 3202 3205 3207 3209 3211 3212 3212 3213 3214 3215 3216 3216 3216 3217 3217 3218 3217 3217 3216 3215 3215 3214 3213 3212 3211 3208 3206 3205 3203 3203 3203 3203 3203 3204 3206 3207 3208 3209 3210 3211
3196 3199 3201 3203 3205 3207 3208 3210 3211 3211 3212 3213 3214 3215 3216 3215 3216 3217 3217 3217 3216 3215 3215 3214 3213 3212 3211 3209 3207 3205 3203 3203 3201 3202 3203 3203 3204 3204 3206 3206 3208 3208 3209
3194 3197 3199 3201 3204 3205 3207 3208 3209 3209 3210 3211 3213 3214 3214 3215 3216 3216 3216 3215 3215 3214 3213 3213 3212 3210 3209 3207 3205 3204 3202 3201 3201 3201 3202 3202 3202 3203 3204 3205 3207 3208 3209
3192 3196 3198 3200 3203 3204 3205 3206 3207 3208 3208 3209 3211 3212 3213 3214 3215 3215 3214 3214 3213 3213 3213 3212 3211 3208 3207 3205 3203 3202 3201 3201 3201 3201 3200 3202 3201 3201 3202 3204 3205 3206 3207
3190 3193 3196 3199 3201 3202 3203 3204 3205 3206 3208 3209 3210 3211 3212 3213 3213 3213 3213 3212 3212 3212 3211 3209 3208 3207 3205 3203 3202 3202 3201 3200 3200 3202 3200 3201 3202 3201 3203 3203 3203 3203 3204
3186 3190 3193 3196 3198 3199 3200 3201 3203 3205 3206 3207 3208 3209 3210 3210 3211 3211 3211 3211 3211 3210 3210 3208 3208 3207 3205 3203 3202 3202 3201 3200 3201 3201 3199 3200 3201 3202 3201 3201 3201 3201 3201
3183 3186 3189 3192 3194 3197 3199 3200 3201 3203 3204 3205 3206 3207 3207 3206 3208 3208 3209 3209 3210 3209 3210 3210 3209 3208 3207 3205 3204 3203 3201 3201 3200 3201 3200 3200 3199 3201 3200 3200 3199 3200 3201
3178 3182 3186 3189 3192 3194 3196 3198 3200 3200 3201 3202 3204 3204 3204 3204 3205 3207 3207 3208 3209 3210 3210 3210 3210 3209 3207 3206 3205 3204 3202 3201 3200 3201 3200 3199 3198 3198 3198 3199 3198 3198 3198
3173 3179 3181 3185 3188 3189 3192 3194 3196 3198 3199 3200 3200 3201 3202 3202 3203 3205 3206 3208 3209 3210 3210 3210 3209 3209 3209 3207 3206 3205 3203 3202 3200 3200 3199 3199 3199 3198 3197 3196 3197 3197 3196
3169 3173 3177 3179 3182 3185 3188 3190 3192 3194 3196 3197 3197 3198 3199 3200 3202 3204 3205 3207 3208 3209 3210 3209 3210 3210 3209 3207 3207 3207 3205 3202 3199 3198 3197 3197 3197 3197 3197 3196 3194 3194 3194
3166 3169 3173 3175 3177 3181 3183 3186 3188 3190 3192 3193 3194 3195 3197 3199 3201 3202 3204 3206 3208 3208 3209 3209 3209 3210 3208 3206 3206 3205 3204 3201 3199 3196 3196 3195 3195 3195 3194 3193 3192 3192 3191